Oxford, CT

12:39 AM EDT on May 27, 2018 (GMT -0400)
Waterbury-Oxford

Weather History for KOXC - May, 2013

Change the Weather History Date:

Friday, May 24, 2013

  Actual Average Record
Temperature  
Mean Temperature 55 °F -  
Max Temperature 62 °F 64 °F 82 °F (2007)
Min Temperature 46 °F 47 °F 42 °F (1997)
Degree Days  
Heating Degree Days 10    
Growing Degree Days 5 (Base 50)    
Moisture  
Dew Point 56 °F    
Average Humidity 88    
Maximum Humidity 94    
Minimum Humidity 76    
Precipitation  
Precipitation 0.14 in - - ()
Sea Level Pressure  
Sea Level Pressure 29.76 in    
Wind  
Wind Speed 7 mph (West)    
Max Wind Speed 16 mph    
Max Gust Speed 26 mph    
Visibility 5 miles    
Events Fog , Rain    
Averages and records for this station are not official NWS values.
T = Trace of Precipitation, MM = Missing Value Source: NWS Daily Summary

Daily Weather History Graph

Daily Weather History Graph

Search for Another Location

Airport or City:

Astronomy

May. 24, 2013 Rise Set
Actual Time 5:25 AM EDT 8:13 PM EDT
Civil Twilight 4:53 AM EDT 8:46 PM EDT
Nautical Twilight 4:12 AM EDT 9:27 PM EDT
Astronomical Twilight 3:25 AM EDT 10:14 PM EDT
Moon 7:52 PM EDT (5/24) 4:56 AM EDT (5/24)
Length of Visible Light 15h 53m
Length of Day
14h 47m
Full, 100% of the Moon is Illuminated
May 24
Full
May 25
Full
May 31
Last Quarter
Jun 8
New
Jun 16
First Quarter

Hourly Weather History & Observations

Time (EDT) Temp. Windchill Dew Point Humidity Pressure Visibility Wind Dir Wind Speed Gust Speed Precip Events Conditions
12:15 AM 62.6 °F - 60.8 °F 94% 29.79 in 10.0 mi South 10.4 mph 16.1 mph N/A   Overcast
12:35 AM 62.6 °F - 60.8 °F 94% 29.79 in 10.0 mi South 6.9 mph - N/A   Overcast
12:55 AM 62.6 °F - 60.8 °F 94% 29.78 in 10.0 mi South 11.5 mph - 0.05 in   Overcast
1:15 AM 62.6 °F - 60.8 °F 94% 29.77 in 10.0 mi South 8.1 mph - N/A   Overcast
1:35 AM 62.6 °F - 60.8 °F 94% 29.76 in 5.0 mi South 10.4 mph - N/A   Overcast
1:55 AM 62.6 °F - 60.8 °F 94% 29.75 in 4.0 mi SSW 8.1 mph - 0.03 in   Overcast
2:15 AM 62.6 °F - 60.8 °F 94% 29.74 in 7.0 mi SSW 6.9 mph - 0.03 in   Overcast
2:35 AM 62.6 °F - 60.8 °F 94% 29.74 in 10.0 mi SSW 9.2 mph - 0.04 in   Overcast
2:55 AM 62.6 °F - 60.8 °F 94% 29.73 in 9.0 mi WSW 4.6 mph - 0.05 in   Overcast
3:15 AM 62.6 °F - 60.8 °F 94% 29.72 in 10.0 mi Calm Calm - N/A   Overcast
3:35 AM 62.6 °F - 59.0 °F 88% 29.71 in 7.0 mi Calm Calm - N/A   Overcast
3:55 AM 62.6 °F - 59.0 °F 88% 29.70 in 5.0 mi Calm Calm - N/A   Overcast
4:15 AM 62.6 °F - 59.0 °F 88% 29.70 in 10.0 mi Calm Calm - N/A   Overcast
4:35 AM 62.6 °F - 59.0 °F 88% 29.69 in 8.0 mi Calm Calm - N/A   Overcast
4:55 AM 60.8 °F - 57.2 °F 88% 29.71 in 1.5 mi SW 3.5 mph - N/A   Mostly Cloudy
5:15 AM 60.8 °F - 59.0 °F 94% 29.71 in 0.5 mi SSW 3.5 mph - 0.01 in   Overcast
5:35 AM 60.8 °F - 59.0 °F 94% 29.72 in 1.5 mi WSW 3.5 mph - 0.01 in   Overcast
5:45 AM 60.8 °F - 59.0 °F 94% 29.73 in 0.2 mi West 4.6 mph - N/A Fog Fog
6:33 AM 60.8 °F - 57.2 °F 88% 29.74 in 1.0 mi WNW 4.6 mph - N/A   Mostly Cloudy
6:50 AM 60.8 °F - 57.2 °F 88% 29.74 in 1.0 mi WNW 4.6 mph - N/A   Overcast
7:50 AM 60.8 °F - 57.2 °F 88% 29.76 in 1.0 mi West 4.6 mph - N/A   Overcast
8:45 AM 62.6 °F - 59.0 °F 88% 29.77 in 2.0 mi Calm Calm - N/A   Overcast
9:45 AM 62.6 °F - 59.0 °F 88% 29.78 in 3.0 mi Calm Calm - N/A   Overcast
10:45 AM 62.6 °F - 59.0 °F 88% 29.78 in 4.0 mi NNW 3.5 mph - N/A   Overcast
11:45 AM 59.0 °F - 53.6 °F 82% 29.78 in 7.0 mi North 16.1 mph - N/A   Overcast
12:55 PM 55.4 °F - 50.0 °F 82% 29.80 in 7.0 mi North 11.5 mph 17.3 mph N/A   Overcast
1:45 PM 55.4 °F - 48.2 °F 77% 29.81 in 7.0 mi North 9.2 mph 17.3 mph N/A   Overcast
2:50 PM 51.8 °F - 46.4 °F 82% 29.82 in 4.0 mi NNW 9.2 mph 18.4 mph N/A Rain Light Rain
3:45 PM 51.8 °F - 44.6 °F 76% 29.82 in 5.0 mi North 12.7 mph 17.3 mph N/A Rain Light Rain
4:45 PM 50.0 °F - 42.8 °F 76% 29.82 in 2.0 mi North 13.8 mph 23.0 mph N/A Rain Rain
5:45 PM 48.2 °F - 42.8 °F 82% 29.84 in 2.0 mi North 11.5 mph 19.6 mph N/A Rain Rain
6:45 PM 48.2 °F - 42.8 °F 82% 29.85 in 4.0 mi North 11.5 mph 20.7 mph N/A Rain Light Rain
7:45 PM 46.4 °F 40.7 °F 41.0 °F 81% 29.88 in 4.0 mi North 12.7 mph 26.5 mph N/A Rain Light Rain